This is the latest recevied weather packets stored in our database for station/object W5ADC. If no packets are shown the sender has not sent any weather packets the latest 10 day(s).
| Time | Temp. | Humidity | Pressure | Rain* | Wind** | Luminosity | Snow |
|---|---|---|---|---|---|---|---|
| 1777394165 | 25.56° C | 90% | 1009.1 hPa | 0 mm | - | 158 W/m² | - |
| 1777393861 | 25.56° C | 90% | 1009 hPa | 0 mm | - | 171 W/m² | - |
| 1777393560 | 25.56° C | 91% | 1009.1 hPa | 0 mm | - | 131 W/m² | - |
| 1777393255 | 25.56° C | 91% | 1009.2 hPa | 0 mm | - | 99 W/m² | - |
| 1777392953 | 25.56° C | 91% | 1009.5 hPa | 0 mm | - | 86 W/m² | - |
| 1777392647 | 25° C | 91% | 1009.1 hPa | 0 mm | - | 89 W/m² | - |
| 1777392344 | 25° C | 92% | 1009.1 hPa | 0 mm | - | 108 W/m² | - |
| 1777392038 | 25° C | 92% | 1009.3 hPa | 0 mm | - | 68 W/m² | - |
| 1777391733 | 25° C | 92% | 1009.1 hPa | 0 mm | - | 113 W/m² | - |
| 1777391431 | 25° C | 92% | 1008.8 hPa | 0 mm | - | 129 W/m² | - |
| 1777391127 | 25° C | 92% | 1009.1 hPa | 0 mm | - | 102 W/m² | - |
| 1777390823 | 25° C | 92% | 1008.8 hPa | 0 mm | - | 126 W/m² | - |
| 1777390520 | 25° C | 93% | 1008.9 hPa | 0 mm | - | 65 W/m² | - |
| 1777390216 | 25° C | 93% | 1008.9 hPa | 0 mm | - | 83 W/m² | - |
| 1777389913 | 25° C | 93% | 1009 hPa | 0 mm | - | 53 W/m² | - |
| 1777389610 | 25° C | 93% | 1008.8 hPa | 0 mm | - | 86 W/m² | - |
| 1777389306 | 25° C | 93% | 1008.6 hPa | 0 mm | - | 51 W/m² | - |
| 1777389004 | 25° C | 93% | 1008.5 hPa | 0 mm | - | 31 W/m² | - |
| 1777388701 | 25° C | 93% | 1008.6 hPa | 0 mm | - | 55 W/m² | - |
| 1777388397 | 25° C | 92% | 1008.6 hPa | 0 mm | - | 43 W/m² | - |
| 1777388097 | 25° C | 92% | 1008.9 hPa | 0 mm | - | 61 W/m² | - |
| 1777387793 | 25° C | 93% | 1008.6 hPa | 0 mm | - | 37 W/m² | - |
| 1777387490 | 25° C | 93% | 1008.4 hPa | 0 mm | - | 74 W/m² | - |
| 1777387185 | 24.44° C | 93% | 1008.3 hPa | 0 mm | - | 54 W/m² | - |
| 1777386881 | 24.44° C | 93% | 1008.3 hPa | 0 mm | - | 59 W/m² | - |
* Rain latest hour (hover to see other rain measurements)
** Current wind speed in m/s (hover to see current wind gust speed)